Weather History for Flag Island, MN

Change the Weather History Date:

Sunday, October 6, 2013

  Actual Average Record
Temperature  
Mean Temperature 52 °F -  
Max Temperature 60 °F 50 °F 69 °F (2004)
Min Temperature 44 °F 39 °F 24 °F (2001)
Degree Days  
Heating Degree Days 13    
Growing Degree Days 2 (Base 50)    
Moisture  
Dew Point 39 °F    
Average Humidity 68    
Maximum Humidity 81    
Minimum Humidity 42    
Precipitation  
Precipitation 0.00 in - - ()
Sea Level Pressure  
Sea Level Pressure 29.81 in    
Wind  
Wind Speed 9 mph (NNW)    
Max Wind Speed 15 mph    
Max Gust Speed -    
Visibility 9 miles    
Events      
Averages and records for this station are not official NWS values.
T = Trace of Precipitation, MM = Missing Value Source: NWS Daily Summary

Daily Weather History Graph

Daily Weather History Graph

Search for Another Location

Airport:

Trip Planner

Search our weather history database for the weather conditions in past years. The results will help you decide how hot, cold, wet, or windy it might be!

Date:

Astronomy

Oct. 06, 2013 Rise Set
Actual Time 7:27 AM CDT 6:47 PM CDT
Civil Twilight 6:55 AM CDT 7:18 PM CDT
Nautical Twilight 6:18 AM CDT 7:55 PM CDT
Astronomical Twilight 5:41 AM CDT 8:32 PM CDT
Moon 9:25 AM CDT (10/6) 7:33 PM CDT (10/6)
Length of Visible Light 12h 23m
Length of Day
11h 19m
Waxing Crescent, 3% of the Moon is Illuminated
Oct 6
Waxing Crescent
Oct 11
First Quarter
Oct 18
Full
Oct 26
Last Quarter
Nov 3
New

Hourly Weather History & Observations

Time (CDT) Temp. Windchill Dew Point Humidity Pressure Visibility Wind Dir Wind Speed Gust Speed Precip Events Conditions
12:13 AM 44.6 °F 41.4 °F 39.2 °F 81% 29.93 in 10.0 mi East 5.8 mph - N/A   Overcast
12:33 AM 44.6 °F 41.4 °F 39.2 °F 81% 29.92 in 10.0 mi ENE 5.8 mph - N/A   Overcast
12:53 AM 44.6 °F 40.2 °F 37.4 °F 76% 29.92 in 10.0 mi NE 8.1 mph - N/A   Overcast
1:14 AM 44.6 °F 40.2 °F 37.4 °F 76% 29.92 in 10.0 mi ENE 8.1 mph - N/A   Overcast
1:33 AM 44.6 °F 40.7 °F 37.4 °F 76% 29.91 in 10.0 mi NE 6.9 mph - N/A   Overcast
1:53 AM 44.6 °F 40.2 °F 39.2 °F 81% 29.91 in 10.0 mi NE 8.1 mph - N/A   Overcast
2:14 AM 44.6 °F 40.7 °F 39.2 °F 81% 29.90 in 10.0 mi NE 6.9 mph - N/A   Overcast
2:33 AM 44.6 °F 42.2 °F 39.2 °F 81% 29.88 in 10.0 mi NE 4.6 mph - N/A   Overcast
2:53 AM 44.6 °F 41.4 °F 39.2 °F 81% 29.87 in 10.0 mi NE 5.8 mph - N/A   Overcast
3:14 AM 44.6 °F 40.2 °F 39.2 °F 81% 29.86 in 10.0 mi NNE 8.1 mph - N/A   Overcast
3:33 AM 46.4 °F 40.4 °F 41.0 °F 81% 29.84 in 10.0 mi North 13.8 mph - N/A   Overcast
3:54 AM 44.6 °F 37.8 °F 39.2 °F 81% 29.84 in 10.0 mi North 15.0 mph - N/A   Overcast
4:13 AM 44.6 °F 38.1 °F 39.2 °F 81% 29.84 in 10.0 mi North 13.8 mph - N/A   Overcast
4:33 AM 44.6 °F 38.1 °F 39.2 °F 81% 29.85 in 10.0 mi North 13.8 mph - N/A   Overcast
4:54 AM 44.6 °F 38.8 °F 39.2 °F 81% 29.84 in 10.0 mi North 11.5 mph - N/A   Overcast
5:13 AM 44.6 °F 38.4 °F 39.2 °F 81% 29.85 in 10.0 mi North 12.7 mph - N/A   Overcast
5:33 AM 44.6 °F 38.4 °F 39.2 °F 81% 29.84 in 10.0 mi North 12.7 mph - N/A   Overcast
5:54 AM 44.6 °F 39.7 °F 39.2 °F 81% 29.84 in 10.0 mi North 9.2 mph - N/A   Overcast
6:13 AM 44.6 °F 39.2 °F 39.2 °F 81% 29.85 in 10.0 mi North 10.4 mph - N/A   Overcast
6:33 AM 44.6 °F 38.8 °F 39.2 °F 81% 29.85 in 10.0 mi North 11.5 mph - N/A   Overcast
6:53 AM 44.6 °F 38.4 °F 39.2 °F 81% 29.86 in 10.0 mi North 12.7 mph - N/A   Overcast
7:13 AM 44.6 °F 38.8 °F 39.2 °F 81% 29.85 in 10.0 mi NNW 11.5 mph - N/A   Overcast
7:34 AM 44.6 °F 39.2 °F 39.2 °F 81% 29.85 in 10.0 mi NNW 10.4 mph - N/A   Overcast
7:53 AM 44.6 °F 39.2 °F 39.2 °F 81% 29.85 in 10.0 mi NNW 10.4 mph - N/A   Overcast
8:13 AM 44.6 °F 39.7 °F 39.2 °F 81% 29.85 in 10.0 mi North 9.2 mph - N/A   Overcast
8:34 AM 44.6 °F 39.7 °F 39.2 °F 81% 29.85 in 10.0 mi NNW 9.2 mph - N/A   Mostly Cloudy
8:53 AM 44.6 °F 39.7 °F 37.4 °F 76% 29.84 in 10.0 mi North 9.2 mph - N/A   Scattered Clouds
9:13 AM 44.6 °F 40.2 °F 37.4 °F 76% 29.84 in 10.0 mi North 8.1 mph - N/A   Clear
9:34 AM 44.6 °F 39.2 °F 39.2 °F 81% 29.84 in 10.0 mi NNW 10.4 mph - N/A   Clear
9:53 AM 44.6 °F 39.2 °F 39.2 °F 81% 29.84 in 10.0 mi NNW 10.4 mph - N/A   Clear
10:13 AM 46.4 °F 41.9 °F 37.4 °F 71% 29.83 in 10.0 mi NNW 9.2 mph - N/A   Clear
10:33 AM 46.4 °F 41.1 °F 37.4 °F 71% 29.84 in 10.0 mi NW 11.5 mph - N/A   Clear
10:53 AM 46.4 °F 42.4 °F 39.2 °F 76% 29.83 in 10.0 mi WNW 8.1 mph - N/A   Clear
11:14 AM 46.4 °F 41.1 °F 39.2 °F 76% 29.84 in 10.0 mi NW 11.5 mph - N/A   Clear
11:33 AM 46.4 °F 41.9 °F 39.2 °F 76% 29.83 in 10.0 mi NW 9.2 mph - N/A   Clear
11:53 AM 48.2 °F - 39.2 °F 71% 29.82 in 10.0 mi NW 5.8 mph - N/A   Clear
12:14 PM 48.2 °F - 37.4 °F 66% 29.82 in 10.0 mi WNW 4.6 mph - N/A   Clear
12:33 PM 50.0 °F - 35.6 °F 58% 29.82 in 10.0 mi NW 5.8 mph - N/A   Clear
12:53 PM 51.8 °F - 35.6 °F 54% 29.81 in 10.0 mi NW 8.1 mph - N/A   Clear
1:14 PM 51.8 °F - 33.8 °F 50% 29.80 in 10.0 mi WNW 8.1 mph - N/A   Clear
1:33 PM 51.8 °F - 35.6 °F 54% 29.79 in 10.0 mi WNW 8.1 mph - N/A   Clear
1:53 PM 51.8 °F - 35.6 °F 54% 29.79 in 10.0 mi WNW 6.9 mph - N/A   Clear
2:14 PM 53.6 °F - 35.6 °F 51% 29.78 in 10.0 mi WNW 9.2 mph - N/A   Clear
2:33 PM 53.6 °F - 37.4 °F 54% 29.77 in 10.0 mi WNW 8.1 mph - N/A   Clear
2:53 PM 55.4 °F - 37.4 °F 51% 29.76 in 10.0 mi West 3.5 mph - N/A   Clear
3:13 PM 55.4 °F - 37.4 °F 51% 29.76 in 10.0 mi NW 8.1 mph - N/A   Clear
3:33 PM 57.2 °F - 37.4 °F 48% 29.75 in 10.0 mi WNW 10.4 mph - N/A   Clear
3:54 PM 57.2 °F - 37.4 °F 48% 29.75 in 10.0 mi West 4.6 mph - N/A   Clear
4:13 PM 57.2 °F - 39.2 °F 51% 29.75 in 10.0 mi WNW 10.4 mph - N/A   Clear
4:33 PM 59.0 °F - 39.2 °F 48% 29.74 in 2.0 mi WNW 10.4 mph - N/A   Haze
4:54 PM 60.8 °F - 37.4 °F 42% 29.74 in 2.0 mi West 15.0 mph - N/A   Haze
5:13 PM 60.8 °F - 37.4 °F 42% 29.74 in 1.2 mi WNW 12.7 mph - N/A   Haze
5:33 PM 59.0 °F - 41.0 °F 51% 29.75 in 1.2 mi WNW 11.5 mph - N/A   Haze
5:54 PM 59.0 °F - 42.8 °F 55% 29.75 in 1.5 mi NW 10.4 mph - N/A   Haze
6:13 PM 57.2 °F - 42.8 °F 59% 29.74 in 1.2 mi West 5.8 mph - N/A   Haze
6:33 PM 57.2 °F - 41.0 °F 55% 29.75 in 1.0 mi West 6.9 mph - N/A   Haze
6:54 PM 57.2 °F - 39.2 °F 51% 29.75 in 1.2 mi West 5.8 mph - N/A   Haze
7:13 PM 55.4 °F - 39.2 °F 54% 29.75 in 3.0 mi West 5.8 mph - N/A   Haze
7:33 PM 55.4 °F - 42.8 °F 63% 29.75 in 10.0 mi Calm Calm - N/A   Clear
7:54 PM 53.6 °F - 42.8 °F 67% 29.75 in 10.0 mi WNW 3.5 mph - N/A   Clear
8:13 PM 53.6 °F - 42.8 °F 67% 29.75 in 10.0 mi WNW 3.5 mph - N/A   Clear
8:33 PM 53.6 °F - 42.8 °F 67% 29.75 in 10.0 mi WNW 5.8 mph - N/A   Clear
8:54 PM 53.6 °F - 42.8 °F 67% 29.75 in 10.0 mi WNW 8.1 mph - N/A   Clear
9:13 PM 53.6 °F - 41.0 °F 62% 29.75 in 10.0 mi WNW 6.9 mph - N/A   Clear
9:33 PM 51.8 °F - 39.2 °F 62% 29.76 in 10.0 mi WNW 8.1 mph - N/A   Clear
9:54 PM 51.8 °F - 39.2 °F 62% 29.76 in 10.0 mi WNW 8.1 mph - N/A   Clear
10:13 PM 51.8 °F - 39.2 °F 62% 29.76 in 10.0 mi WNW 10.4 mph - N/A   Clear
10:33 PM 51.8 °F - 39.2 °F 62% 29.77 in 10.0 mi WNW 9.2 mph - N/A   Clear
10:53 PM 51.8 °F - 39.2 °F 62% 29.77 in 10.0 mi WNW 10.4 mph - N/A   Clear
11:13 PM 51.8 °F - 39.2 °F 62% 29.77 in 10.0 mi WNW 9.2 mph - N/A   Clear
11:34 PM 51.8 °F - 41.0 °F 67% 29.77 in 10.0 mi NW 11.5 mph - N/A   Clear
11:53 PM 51.8 °F - 41.0 °F 67% 29.77 in 10.0 mi NW 12.7 mph - N/A   Clear